This is the latest recevied weather packets stored in our database for station/object K7KAZ. If no packets are shown the sender has not sent any weather packets the latest 10 day(s).
| Time | Temp. | Humidity | Pressure | Rain* | Wind** | Luminosity | Snow |
|---|---|---|---|---|---|---|---|
| 1778003901 | 21.11° C | 42% | 1014.3 hPa | 0 mm | - | 854 W/m² | - |
| 1778003597 | 20.56° C | 44% | 1014.3 hPa | 0 mm | - | 724 W/m² | - |
| 1778003294 | 21.11° C | 44% | 1014.4 hPa | 0 mm | - | 783 W/m² | - |
| 1778002991 | 21.11° C | 43% | 1014.5 hPa | 0 mm | - | 274 W/m² | - |
| 1778002687 | 20.56° C | 44% | 1014.5 hPa | 0 mm | - | 761 W/m² | - |
| 1778002384 | 20.56° C | 44% | 1014.4 hPa | 0 mm | - | 176 W/m² | - |
| 1778002081 | 20.56° C | 44% | 1014.3 hPa | 0 mm | - | 800 W/m² | - |
| 1778001778 | 20° C | 44% | 1014.4 hPa | 0 mm | - | 800 W/m² | - |
| 1778001473 | 20° C | 45% | 1014.3 hPa | 0 mm | - | 717 W/m² | - |
| 1778001170 | 20° C | 44% | 1014.5 hPa | 0 mm | - | 848 W/m² | - |
| 1778000866 | 19.44° C | 44% | 1014.5 hPa | 0 mm | - | 851 W/m² | - |
| 1778000564 | 19.44° C | 45% | 1014.5 hPa | 0 mm | - | 256 W/m² | - |
| 1777999955 | 19.44° C | 46% | 1014.6 hPa | 0 mm | - | 283 W/m² | - |
| 1777999650 | 20° C | 47% | 1014.3 hPa | 0 mm | - | 275 W/m² | - |
| 1777999348 | 19.44° C | 48% | 1014.5 hPa | 0 mm | - | 292 W/m² | - |
| 1777999046 | 19.44° C | 49% | 1014.4 hPa | 0 mm | - | 209 W/m² | - |
| 1777998744 | 19.44° C | 49% | 1014.6 hPa | 0 mm | - | 217 W/m² | - |
| 1777998441 | 19.44° C | 48% | 1014.5 hPa | 0 mm | - | 276 W/m² | - |
| 1777998138 | 18.89° C | 50% | 1014.5 hPa | 0 mm | - | 245 W/m² | - |
| 1777997835 | 19.44° C | 49% | 1014.2 hPa | 0 mm | - | 432 W/m² | - |
| 1777997533 | 20° C | 48% | 1014.3 hPa | 0 mm | - | 412 W/m² | - |
| 1777997230 | 18.89° C | 50% | 1014.6 hPa | 0 mm | - | 603 W/m² | - |
| 1777996927 | 20° C | 50% | 1014.4 hPa | 0 mm | - | 738 W/m² | - |
| 1777996624 | 18.89° C | 52% | 1014.4 hPa | 0 mm | - | 245 W/m² | - |
| 1777996320 | 19.44° C | 51% | 1014.5 hPa | 0 mm | - | 323 W/m² | - |
* Rain latest hour (hover to see other rain measurements)
** Current wind speed in m/s (hover to see current wind gust speed)